FW0428 Weather Reports


time (UTC)temp
C
wind
direction
speed
KPH
gust
KPH
rain 1hr
cm
rain 24hr
cm
rain mn
cm
humidity
%
barometer
mb
20210723141550 26 247 0.0 8.0 0.00 0.00 0.00 85 1019.8
20210723110003 23 174 0.0 0.0 0.00 0.00 0.00 92 1018.8
20210723093040 23 230 0.0 1.6 0.00 0.00 0.00 89 1018.4
20210723080103 24 225 0.0 6.4 0.00 0.00 0.00 88 1018.2
20210723073047 24 265 4.8 8.0 0.00 0.00 0.00 88 1018.3
20210723071522 25 221 0.0 4.8 0.00 0.00 0.00 88 1018.2
20210723070140 25 214 0.0 4.8 0.00 0.00 0.00 87 1018.1
20210723064553 25 239 1.6 4.8 0.00 0.00 0.00 87 1018.1
20210723063117 25 239 1.6 6.4 0.00 0.00 0.00 86 1018.1
20210723061553 25 240 1.6 9.7 0.00 0.00 0.00 86 1018.0
20210723060103 25 234 0.0 9.7 0.00 0.00 0.00 85 1018.1
20210723054628 25 241 1.6 8.0 0.00 0.00 0.00 84 1018.1
20210723053206 26 205 1.6 8.0 0.00 0.00 0.00 84 1018.1
20210723051729 26 215 3.2 11.3 0.00 0.00 0.00 84 1018.0
20210723044600 26 242 1.6 9.7 0.00 0.00 0.00 82 1017.9
20210723010222 30 226 0.0 6.4 0.00 0.00 0.00 65 1017.2
20210722224553 32 142 0.0 16.1 0.00 0.00 0.00 58 1016.5
20210722223033 32 192 0.0 6.4 0.00 0.00 0.00 58 1016.7
20210722221529 32 246 1.6 8.0 0.00 0.00 0.00 58 1016.6
20210722220001 32 262 0.0 3.2 0.00 0.00 0.00 58 1016.7
20210722194608 31 257 0.0 8.0 0.00 0.00 0.00 59 1018.1
20210722184609 30 216 1.6 11.3 0.00 0.00 0.00 66 1018.6
20210722174513 29 313 1.6 9.7 0.00 0.00 0.00 69 1019.1
20210722173211 29 194 0.0 4.8 0.00 0.00 0.00 70 1019.2
20210722171544 30 246 1.6 6.4 0.00 0.00 0.00 69 1019.3